World > North America > United States > Michigan

Covert, Michigan Regional Weather

Lat: 42.29N, Lon: 86.26W
Wx Zone: MIZ071
Warning NWS WEATHER ALERT - (More Info. Click Here) Warning
Feedback

Covert, MI Regional Weather

Expires:202007100700;;608319
ASUS43 KDTX 100610
RWRMI 
MICHIGAN HOURLY REGIONAL WEATHER ROUNDUP
NATIONAL WEATHER SERVICE DETROIT/PONTIAC MI
200 AM EDT FRI JUL 10 2020

NOTE: "FAIR" INDICATES FEW OR NO CLOUDS BELOW 12,000 FEET WITH NO
SIGNIFICANT WEATHER AND/OR OBSTRUCTION TO VISIBILITY.


MIZ043>046-050>051-056>058-064>065-071>073-077>080-100700-
SOUTHWEST LOWER MICHIGAN
  
CITY           SKY/WX    TMP DP  RH WIND       PRES   REMARKS
BATTLE CREEK   PTCLDY    76  67  73 SE8       29.84F                  
6HR MIN TEMP:  76; 6HR MAX TEMP:  84;                                

BENTON HARBOR  MOCLDY    81  70  69 S7        29.78S                  
6HR MIN TEMP:  78; 6HR MAX TEMP:  90;                                

BIG RAPIDS     CLOUDY    71  67  88 NW6       29.82F                  
6HR MIN TEMP:  68; 6HR MAX TEMP:  76;                                

COLDWATER      CLEAR     76  68  76 S6        29.84F                  
6HR MIN TEMP:  74; 6HR MAX TEMP:  86;                                

FREMONT        MOCLDY    74  67  79 W9        29.80F                  
6HR MIN TEMP:  73; 6HR MAX TEMP:  81;                                

HOLLAND        PTCLDY    75  67  76 SE7       29.79F                  
6HR MIN TEMP:  75; 6HR MAX TEMP:  83;                                

GRAND RAPIDS   CLEAR     72  69  90 SE7       29.81F                  
6HR MIN TEMP:  71; 6HR MAX TEMP:  77;                                

IONIA          FAIR      71  66  85 SE8       29.83S                  
6HR MIN TEMP:  70; 6HR MAX TEMP:  77;                                

KALAMAZOO      PTCLDY    77  66  68 SE3       29.83S                  
6HR MIN TEMP:  77; 6HR MAX TEMP:  90;                                

LUDINGTON      LGT RAIN  70  69  97 W8        29.81F                  
6HR MIN TEMP:  70; 6HR MAX TEMP:  83; 6HR PCP:  0.35;                

MARSHALL       CLEAR     71  67  85 E5        29.84F                  
6HR MIN TEMP:  71; 6HR MAX TEMP:  85;                                

MOUNT PLEASANT MOCLDY    75  69  82 SE7       29.81F                  
6HR MIN TEMP:  72; 6HR MAX TEMP:  76;                                

MUSKEGON       LGT RAIN  73  67  81 NW12G26   29.82R                  
6HR MIN TEMP:  74; 6HR MAX TEMP:  86; 6HR PCP: TRACE;                

SOUTH HAVEN    PTCLDY    78  72  82 SE5       29.79S                  
$$

SKY/WX - Weather  TMP - Temperature  DP - Dew Point  RH - Relative Humidity
WIND - Wind Direction/Speed PRES - Barometric Pressure VSB - Visibility
WCI - Wind Chill Index E13G22 Wind - East Wind 13 mph/Gusts of 22 mph
Covert Weather Map
UTC Time: 7/10/2020, 06:38
Your Time: